FW4468 Weather Reports


Display with metric or nautical units.
time (UTC)temp
F
wind
direction
speed
MPH
gust
MPH
rain 1hr
in
rain 24hr
in
rain mn
in
humidity
%
barometer
mb
20260505031520 68 5 0.0 0.0 0.00 0.00 0.00 40 1008.7
20260505030020 69 5 0.0 2.0 0.00 0.00 0.00 37 1008.6
20260505024519 70 5 0.0 1.0 0.00 0.00 0.00 35 1008.5
20260505023018 71 71 1.0 4.0 0.00 0.00 0.00 35 1008.4
20260505021517 72 71 1.0 4.0 0.00 0.00 0.00 36 1008.5
20260505020023 73 57 0.0 5.0 0.00 0.00 0.00 35 1008.4
20260505014530 74 67 2.0 5.0 0.00 0.00 0.00 34 1008.4
20260505013015 75 57 2.0 7.0 0.00 0.00 0.00 35 1008.4
20260505011515 76 53 1.0 5.0 0.00 0.00 0.00 35 1008.5
20260505010014 77 58 2.0 6.0 0.00 0.00 0.00 35 1008.4
20260505004513 79 69 1.0 5.0 0.00 0.00 0.00 33 1008.5
20260505003011 80 146 0.0 4.0 0.00 0.00 0.00 31 1008.4
20260505001510 80 149 0.0 4.0 0.00 0.00 0.00 29 1008.3
20260505000011 80 141 3.0 6.0 0.00 0.00 0.00 28 1008.4
20260504234507 81 146 1.0 6.0 0.00 0.00 0.00 28 1008.4
20260504233006 81 118 3.0 6.0 0.00 0.00 0.00 28 1008.5
20260504231505 81 141 1.0 7.0 0.00 0.00 0.00 31 1008.5
20260504230006 83 183 3.0 6.0 0.00 0.00 0.00 27 1008.5
20260504224506 83 202 2.0 8.0 0.00 0.00 0.00 26 1008.7
20260504223125 82 180 3.0 7.0 0.00 0.00 0.00 27 1008.9
20260504221602 81 164 3.0 6.0 0.00 0.00 0.00 30 1009.0
20260504220058 80 188 1.0 7.0 0.00 0.00 0.00 29 1009.2
20260504214555 80 168 2.0 5.0 0.00 0.00 0.00 31 1009.4
20260504213056 79 199 2.0 7.0 0.00 0.00 0.00 32 1009.4
20260504211639 80 193 2.0 8.0 0.00 0.00 0.00 33 1009.7
20260504210053 79 162 1.0 6.0 0.00 0.00 0.00 34 1009.6
20260504204550 78 158 2.0 6.0 0.00 0.00 0.00 36 1009.7
20260504203049 77 173 3.0 7.0 0.00 0.00 0.00 36 1009.8
20260504201550 79 190 2.0 6.0 0.00 0.00 0.00 34 1009.8
20260504200045 77 158 2.0 7.0 0.00 0.00 0.00 35 1009.7
20260504194550 76 156 3.0 8.0 0.00 0.00 0.00 35 1009.7
20260504193042 76 209 2.0 7.0 0.00 0.00 0.00 32 1009.8
20260504191553 76 184 3.0 8.0 0.00 0.00 0.00 30 1009.9
20260504190045 76 140 2.0 8.0 0.00 0.00 0.00 28 1010.1
20260504184545 75 137 1.0 8.0 0.00 0.00 0.00 33 1010.0
20260504183033 74 102 3.0 8.0 0.00 0.00 0.00 35 1010.0
20260504181534 73 151 2.0 7.0 0.00 0.00 0.00 38 1010.0
20260504180027 71 216 3.0 6.0 0.00 0.00 0.00 39 1010.0
20260504174522 70 158 3.0 7.0 0.00 0.00 0.00 41 1010.2
20260504173020 70 195 3.0 6.0 0.00 0.00 0.00 41 1010.2
20260504171522 69 185 4.0 7.0 0.00 0.00 0.00 39 1010.2
20260504081513 55 162 0.0 2.0 0.00 0.00 0.00 53 1008.6
20260504080110 56 162 0.0 0.0 0.00 0.00 0.00 51 1008.6
20260504050151 65 160 0.0 2.0 0.00 0.00 0.00 34 1008.5
20260504044550 65 159 0.0 2.0 0.00 0.00 0.00 35 1008.6
20260504043056 66 161 0.0 2.0 0.00 0.00 0.00 34 1008.5
20260504041549 66 143 0.0 3.0 0.00 0.00 0.00 35 1008.5
20260504040111 67 128 0.0 3.0 0.00 0.00 0.00 34 1008.5
20260504034548 68 121 0.0 2.0 0.00 0.00 0.00 35 1008.4
20260504033049 69 120 0.0 2.0 0.00 0.00 0.00 33 1008.4